THOR ABLESTAR DEB, 706

Orbit data source: Space-Track

THOR ABLESTAR DEB, 706 is space debris in LEO originally from a launch on Thu, 05 Dec 1963 UTC launched from the Air Force Western Test Range (AFWTR). Debris objects in space refer to the collection of defunct objects orbiting the Earth. Examples of debris include non-operational satellites, rocket bodies, and fragments generated from explosions, collisions, or faulty payload assembly.

Loading next visibility...
Identifier
706, 1963-049D
Orbit
LEO
Country
Flag of USUS
Related business
Manufacturer
Unknown
Mission
Spacecraft
Bus & Motor
Unknown
Mass
Unknown
Launch date (UTC)
1963-12-05 (62 years ago)
Launch vehicle
Unknown
Launch site
Air Force Western Test Range (AFWTR)
Object type
Payload
Rocket body
Debris
Shape & HBR
Unknown
Radar Cross Section
Small (<0.1 m²)

Expand to show TLE details & history
Last TLE update: 4 hours ago

TLE from 4 hours ago
0 THOR ABLESTAR DEB
1 00706U 63049D   25259.28579027  .00000248  00000-0  33666-3 0  9999
2 00706  89.9092  75.4388 0028251 137.8041  41.5978 13.56451511 46173
Epoch: 2025-09-16T06:51Z
TLE epoch observation values (Epoch: 2025-09-16T06:51:32.279Z)
Latitude
0.26867°
Longitude
157.0756°
Altitude
1,035.877 km
Speed
7.342 km/s
True Right ascension
17h 01m 45s
True Declination
0° 16' 02"
Sunlit
Object was in daylight at epoch
Visualization orbit readout
Latitude
Unknown
Longitude
Unknown
Altitude
Unknown
Speed
Unknown
Apparent Right ascension
Unknown
Apparent Declination
Unknown
Sunlit
N/A
Visualization observer readout
Local Sidereal Time
03:36:57
Azimuth
Unknown
Elevation
Unknown
Doppler factor
Unknown
Orbital elements
Apogee altitude
1,066.63 km
Perigee altitude
1,024.684 km
Semi-major axis
7,423.794 km
Eccentricity
0.00283
Inclination
89.9092°
RAAN
75.4388°
Arg. of periapsis
137.8041°
True anomaly
41.81329°
Mean anomaly
41.5978°
Eccentric anomaly
41.70549°
Mean motion
3.39316 °/min
Orbital period
106.1 mins
BSTAR
0.00033666
Loading maneuver chart data...
Computing Atmospheric mass density...
Loading historical data...
Loading historical data...
Loading historical data...
Loading historical data...
Loading historical data...
Loading historical data...
Loading historical data...

Documentation

Showing up to 5 results
|